Location: Eastchurch
(51.4000°N, 0.8667°E)
Time: 06:40:27
(UTC+00:00)

Cosmos 1833 Rocket - Pass Details

Date: 19 January 2026
Orbit: 832 x 838 km, 71.0° (Epoch: 18 February)

Event Time Altitude Azimuth Distance (km) Brightness Sun altitude
Rises 17:04:46 0° 155° (SSE) 3,378 5.8 -6.4°
Reaches altitude 10° 17:08:06 10° 134° (SE) 2,450 4.9 -6.9°
Maximum altitude 17:11:25 16° 98° (E) 2,051 4.2 -7.4°
Drops below altitude 10° 17:14:44 10° 62° (ENE) 2,461 4.4 -7.9°
Enters shadow 17:14:59 - 60° (ENE) 2,518 4.5 -7.9°
